| time (UTC) | temp C | wind direction | speed KPH | gust KPH | rain 1hr cm | rain 24hr cm | rain mn cm | humidity % | barometer mb |
| 20260507084056 | 6 | 215 | 1.6 | 4.8 | 0.00 | 0.00 | 0.00 | 55 | 1013.0 |
| 20260507083559 | 6 | 216 | 0.0 | 6.4 | 0.00 | 0.00 | 0.00 | 55 | 1013.1 |
| 20260507083104 | 6 | 216 | 3.2 | 6.4 | 0.00 | 0.00 | 0.00 | 55 | 1013.2 |
| 20260507082559 | 6 | 216 | 1.6 | 6.4 | 0.00 | 0.00 | 0.00 | 55 | 1013.4 |
| 20260507082057 | 6 | 0 | 1.6 | 8.0 | 0.00 | 0.00 | 0.00 | 54 | 1013.4 |
| 20260507081557 | 6 | 216 | 3.2 | 8.0 | 0.00 | 0.00 | 0.00 | 54 | 1013.4 |
| 20260507081058 | 6 | 215 | 3.2 | 9.7 | 0.00 | 0.00 | 0.00 | 54 | 1013.3 |
| 20260507080556 | 6 | 215 | 3.2 | 9.7 | 0.00 | 0.00 | 0.00 | 54 | 1013.3 |
| 20260507080056 | 6 | 215 | 3.2 | 8.0 | 0.00 | 0.00 | 0.00 | 54 | 1013.2 |
| 20260507075556 | 6 | 203 | 1.6 | 6.4 | 0.00 | 0.00 | 0.00 | 55 | 1013.2 |
| 20260507075056 | 6 | 203 | 1.6 | 6.4 | 0.00 | 0.00 | 0.00 | 55 | 1013.3 |
| 20260507074559 | 6 | 203 | 1.6 | 6.4 | 0.00 | 0.00 | 0.00 | 55 | 1013.2 |
| 20260507074053 | 6 | 203 | 3.2 | 6.4 | 0.00 | 0.00 | 0.00 | 55 | 1013.4 |
| 20260507073556 | 6 | 208 | 1.6 | 6.4 | 0.00 | 0.00 | 0.00 | 55 | 1013.5 |
| 20260507073110 | 6 | 217 | 1.6 | 9.7 | 0.00 | 0.00 | 0.00 | 55 | 1013.6 |
| 20260507072556 | 6 | 217 | 3.2 | 9.7 | 0.00 | 0.00 | 0.00 | 56 | 1013.7 |
| 20260507072058 | 5 | 215 | 3.2 | 8.0 | 0.00 | 0.00 | 0.00 | 56 | 1013.8 |
| 20260507071557 | 5 | 212 | 1.6 | 8.0 | 0.00 | 0.00 | 0.00 | 56 | 1013.8 |
| 20260507071056 | 5 | 221 | 3.2 | 9.7 | 0.00 | 0.00 | 0.00 | 56 | 1013.9 |
| 20260507070556 | 5 | 223 | 4.8 | 11.3 | 0.00 | 0.00 | 0.00 | 56 | 1014.0 |
| 20260507070108 | 5 | 223 | 6.4 | 11.3 | 0.00 | 0.00 | 0.00 | 56 | 1014.1 |
| 20260507065555 | 5 | 223 | 6.4 | 11.3 | 0.00 | 0.00 | 0.00 | 56 | 1014.1 |
| 20260507065101 | 5 | 223 | 6.4 | 11.3 | 0.00 | 0.00 | 0.00 | 56 | 1014.3 |
| 20260507064602 | 5 | 224 | 6.4 | 11.3 | 0.00 | 0.00 | 0.00 | 56 | 1014.1 |
| 20260507064058 | 5 | 221 | 4.8 | 9.7 | 0.00 | 0.00 | 0.00 | 56 | 1014.2 |
| 20260507063557 | 5 | 219 | 4.8 | 9.7 | 0.00 | 0.00 | 0.00 | 56 | 1014.2 |
| 20260507063059 | 5 | 219 | 3.2 | 8.0 | 0.00 | 0.00 | 0.00 | 56 | 1014.2 |
| 20260507062556 | 5 | 219 | 3.2 | 9.7 | 0.00 | 0.00 | 0.00 | 56 | 1014.1 |
| 20260507062056 | 5 | 219 | 4.8 | 9.7 | 0.00 | 0.00 | 0.00 | 57 | 1014.2 |
| 20260507061555 | 5 | 219 | 3.2 | 9.7 | 0.00 | 0.00 | 0.00 | 57 | 1014.3 |
| 20260507061057 | 5 | 221 | 4.8 | 9.7 | 0.00 | 0.00 | 0.00 | 56 | 1014.3 |
| 20260507060600 | 5 | 223 | 4.8 | 8.0 | 0.00 | 0.00 | 0.00 | 56 | 1014.5 |
| 20260507060055 | 5 | 225 | 4.8 | 8.0 | 0.00 | 0.00 | 0.00 | 57 | 1014.5 |
| 20260507055556 | 5 | 229 | 4.8 | 8.0 | 0.00 | 0.00 | 0.00 | 58 | 1014.5 |
| 20260507055055 | 5 | 234 | 4.8 | 8.0 | 0.00 | 0.00 | 0.00 | 58 | 1014.7 |
| 20260507054555 | 5 | 243 | 3.2 | 6.4 | 0.00 | 0.00 | 0.00 | 59 | 1014.6 |
| 20260507054059 | 5 | 252 | 1.6 | 6.4 | 0.00 | 0.00 | 0.00 | 60 | 1014.4 |
| 20260507053556 | 5 | 316 | 1.6 | 4.8 | 0.00 | 0.00 | 0.00 | 61 | 1014.5 |
| 20260507053058 | 5 | 0 | 0.0 | 4.8 | 0.00 | 0.00 | 0.00 | 62 | 1014.3 |
| 20260507052558 | 5 | 316 | 0.0 | 4.8 | 0.00 | 0.00 | 0.00 | 62 | 1014.3 |
| 20260507052057 | 4 | 317 | 0.0 | 3.2 | 0.00 | 0.00 | 0.00 | 63 | 1014.5 |
| 20260507051607 | 5 | 0 | 0.0 | 3.2 | 0.00 | 0.00 | 0.00 | 63 | 1014.5 |
| 20260507051057 | 5 | 0 | 0.0 | 3.2 | 0.00 | 0.00 | 0.00 | 63 | 1014.7 |
| 20260507050556 | 5 | 317 | 0.0 | 1.6 | 0.00 | 0.00 | 0.00 | 64 | 1014.6 |
| 20260507050109 | 5 | 0 | 0.0 | 0.0 | 0.00 | 0.00 | 0.00 | 63 | 1014.7 |
| 20260507045556 | 5 | 0 | 0.0 | 1.6 | 0.00 | 0.00 | 0.00 | 63 | 1014.6 |
| 20260507045056 | 5 | 0 | 0.0 | 1.6 | 0.00 | 0.00 | 0.00 | 63 | 1014.7 |
| 20260507044600 | 5 | 0 | 0.0 | 1.6 | 0.00 | 0.00 | 0.00 | 63 | 1014.6 |
| 20260507044101 | 5 | 0 | 0.0 | 0.0 | 0.00 | 0.00 | 0.00 | 63 | 1014.7 |
| 20260507043556 | 5 | 0 | 0.0 | 0.0 | 0.00 | 0.00 | 0.00 | 63 | 1014.8 |
| 20260507043058 | 5 | 0 | 0.0 | 0.0 | 0.00 | 0.00 | 0.00 | 63 | 1015.0 |
| 20260507042555 | 5 | 0 | 0.0 | 1.6 | 0.00 | 0.00 | 0.00 | 62 | 1014.9 |
| 20260507042055 | 5 | 0 | 0.0 | 1.6 | 0.00 | 0.00 | 0.00 | 61 | 1015.0 |
| 20260507041607 | 5 | 0 | 0.0 | 3.2 | 0.00 | 0.00 | 0.00 | 60 | 1015.1 |
| 20260507041056 | 5 | 0 | 0.0 | 3.2 | 0.00 | 0.00 | 0.00 | 60 | 1015.1 |
| 20260507040600 | 5 | 317 | 0.0 | 3.2 | 0.00 | 0.00 | 0.00 | 58 | 1015.1 |
| 20260507040109 | 5 | 317 | 0.0 | 3.2 | 0.00 | 0.00 | 0.00 | 56 | 1015.2 |
| 20260507035601 | 5 | 0 | 0.0 | 1.6 | 0.00 | 0.00 | 0.00 | 56 | 1015.2 |
| 20260507035055 | 5 | 0 | 0.0 | 1.6 | 0.00 | 0.00 | 0.00 | 56 | 1015.1 |
| 20260507034602 | 6 | 0 | 0.0 | 3.2 | 0.00 | 0.00 | 0.00 | 56 | 1015.3 |
| 20260507034056 | 6 | 0 | 0.0 | 3.2 | 0.00 | 0.00 | 0.00 | 56 | 1015.2 |
| 20260507033556 | 6 | 317 | 0.0 | 3.2 | 0.00 | 0.00 | 0.00 | 55 | 1015.4 |
| 20260507033102 | 6 | 317 | 0.0 | 3.2 | 0.00 | 0.00 | 0.00 | 54 | 1015.4 |
| 20260507032557 | 6 | 0 | 0.0 | 3.2 | 0.00 | 0.00 | 0.00 | 53 | 1015.5 |
| 20260507032055 | 6 | 317 | 0.0 | 1.6 | 0.00 | 0.00 | 0.00 | 53 | 1015.5 |
| 20260507031602 | 6 | 0 | 0.0 | 0.0 | 0.00 | 0.00 | 0.00 | 52 | 1015.5 |
| 20260507031056 | 6 | 0 | 0.0 | 1.6 | 0.00 | 0.00 | 0.00 | 51 | 1015.5 |
| 20260507030556 | 7 | 0 | 0.0 | 1.6 | 0.00 | 0.00 | 0.00 | 50 | 1015.6 |
| 20260507030058 | 7 | 0 | 0.0 | 0.0 | 0.00 | 0.00 | 0.00 | 50 | 1015.5 |
| 20260507025558 | 7 | 0 | 0.0 | 0.0 | 0.00 | 0.00 | 0.00 | 49 | 1015.5 |
| 20260507025056 | 7 | 0 | 0.0 | 1.6 | 0.00 | 0.00 | 0.00 | 50 | 1015.4 |
| 20260507024603 | 7 | 0 | 0.0 | 1.6 | 0.00 | 0.00 | 0.00 | 51 | 1015.5 |
| 20260507024104 | 7 | 0 | 0.0 | 1.6 | 0.00 | 0.00 | 0.00 | 49 | 1015.5 |
| 20260507023557 | 8 | 0 | 0.0 | 1.6 | 0.00 | 0.00 | 0.00 | 48 | 1015.6 |
| 20260507023056 | 8 | 0 | 0.0 | 1.6 | 0.00 | 0.00 | 0.00 | 47 | 1015.4 |
| 20260507022556 | 8 | 0 | 0.0 | 1.6 | 0.00 | 0.00 | 0.00 | 48 | 1015.3 |
| 20260507022059 | 8 | 0 | 0.0 | 1.6 | 0.00 | 0.00 | 0.00 | 47 | 1015.4 |
| 20260507021605 | 8 | 0 | 0.0 | 1.6 | 0.00 | 0.00 | 0.00 | 45 | 1015.4 |
| 20260507021055 | 9 | 0 | 0.0 | 0.0 | 0.00 | 0.00 | 0.00 | 45 | 1015.5 |
| 20260507020556 | 9 | 0 | 0.0 | 0.0 | 0.00 | 0.00 | 0.00 | 44 | 1015.5 |
| 20260507020059 | 10 | 0 | 0.0 | 0.0 | 0.00 | 0.00 | 0.00 | 43 | 1015.4 |
| 20260507015556 | 10 | 0 | 0.0 | 0.0 | 0.00 | 0.00 | 0.00 | 41 | 1015.5 |
| 20260507015055 | 10 | 0 | 0.0 | 0.0 | 0.00 | 0.00 | 0.00 | 40 | 1015.4 |
| 20260507014600 | 10 | 0 | 0.0 | 0.0 | 0.00 | 0.00 | 0.00 | 38 | 1015.3 |
| 20260507014055 | 10 | 0 | 0.0 | 0.0 | 0.00 | 0.00 | 0.00 | 37 | 1015.4 |
| 20260507013556 | 11 | 0 | 0.0 | 0.0 | 0.00 | 0.00 | 0.00 | 38 | 1015.4 |
| 20260507013057 | 11 | 0 | 0.0 | 0.0 | 0.00 | 0.00 | 0.00 | 37 | 1015.3 |
| 20260507012559 | 11 | 0 | 0.0 | 1.6 | 0.00 | 0.00 | 0.00 | 35 | 1015.2 |
| 20260507012056 | 11 | 0 | 0.0 | 3.2 | 0.00 | 0.00 | 0.00 | 35 | 1015.4 |
| 20260507011604 | 11 | 317 | 0.0 | 4.8 | 0.00 | 0.00 | 0.00 | 35 | 1015.5 |
| 20260507011055 | 12 | 317 | 1.6 | 4.8 | 0.00 | 0.00 | 0.00 | 34 | 1015.6 |
| 20260507010557 | 12 | 317 | 1.6 | 4.8 | 0.00 | 0.00 | 0.00 | 33 | 1015.5 |
| 20260507005556 | 12 | 317 | 0.0 | 6.4 | 0.00 | 0.00 | 0.00 | 32 | 1015.5 |
| 20260507005055 | 12 | 317 | 1.6 | 9.7 | 0.00 | 0.00 | 0.00 | 32 | 1015.5 |
| 20260507004557 | 12 | 317 | 1.6 | 9.7 | 0.00 | 0.00 | 0.00 | 32 | 1015.4 |
| 20260507004057 | 12 | 316 | 3.2 | 9.7 | 0.00 | 0.00 | 0.00 | 31 | 1015.4 |
| 20260507003556 | 12 | 321 | 3.2 | 16.1 | 0.00 | 0.00 | 0.00 | 31 | 1015.5 |
| 20260507003058 | 12 | 319 | 3.2 | 19.3 | 0.00 | 0.00 | 0.00 | 31 | 1015.5 |
| 20260507002555 | 12 | 326 | 8.0 | 19.3 | 0.00 | 0.00 | 0.00 | 30 | 1015.7 |
| 20260507002056 | 13 | 342 | 8.0 | 17.7 | 0.00 | 0.00 | 0.00 | 30 | 1015.8 |
| 20260507001605 | 13 | 9 | 4.8 | 16.1 | 0.00 | 0.00 | 0.00 | 30 | 1015.7 |
| 20260507001057 | 13 | 351 | 4.8 | 17.7 | 0.00 | 0.00 | 0.00 | 30 | 1015.8 |
| 20260507000559 | 13 | 336 | 6.4 | 17.7 | 0.00 | 0.00 | 0.00 | 30 | 1015.9 |
| 20260507000059 | 13 | 332 | 8.0 | 16.1 | 0.00 | 0.00 | 0.00 | 30 | 1016.0 |
| 20260506235557 | 13 | 5 | 4.8 | 14.5 | 0.00 | 0.00 | 0.00 | 31 | 1016.0 |
| 20260506235056 | 13 | 324 | 6.4 | 19.3 | 0.00 | 0.00 | 0.00 | 30 | 1015.9 |
| 20260506234624 | 13 | 342 | 8.0 | 19.3 | 0.00 | 0.00 | 0.00 | 30 | 1015.8 |
| 20260506234100 | 13 | 5 | 6.4 | 19.3 | 0.00 | 0.00 | 0.00 | 29 | 1015.9 |
| 20260506233556 | 12 | 305 | 6.4 | 22.5 | 0.00 | 0.00 | 0.00 | 31 | 1015.9 |
| 20260506233100 | 12 | 315 | 9.7 | 22.5 | 0.00 | 0.00 | 0.00 | 30 | 1016.0 |
| 20260506232558 | 12 | 322 | 11.3 | 22.5 | 0.00 | 0.00 | 0.00 | 30 | 1015.9 |
| 20260506232059 | 12 | 296 | 4.8 | 12.9 | 0.00 | 0.00 | 0.00 | 31 | 1016.0 |
| 20260506231557 | 12 | 344 | 3.2 | 12.9 | 0.00 | 0.00 | 0.00 | 31 | 1016.1 |
| 20260506231059 | 12 | 21 | 3.2 | 17.7 | 0.00 | 0.00 | 0.00 | 31 | 1016.3 |
| 20260506230558 | 12 | 336 | 6.4 | 17.7 | 0.00 | 0.00 | 0.00 | 30 | 1016.3 |
| 20260506230059 | 13 | 355 | 4.8 | 16.1 | 0.00 | 0.00 | 0.00 | 31 | 1016.3 |
| 20260506225557 | 12 | 39 | 8.0 | 17.7 | 0.00 | 0.00 | 0.00 | 31 | 1016.3 |
| 20260506225059 | 12 | 360 | 8.0 | 17.7 | 0.00 | 0.00 | 0.00 | 31 | 1016.3 |
| 20260506224558 | 12 | 42 | 6.4 | 16.1 | 0.00 | 0.00 | 0.00 | 32 | 1016.3 |
| 20260506224055 | 12 | 5 | 6.4 | 20.9 | 0.00 | 0.00 | 0.00 | 32 | 1016.3 |
| 20260506223557 | 12 | 324 | 11.3 | 22.5 | 0.00 | 0.00 | 0.00 | 31 | 1016.4 |
| 20260506223100 | 12 | 338 | 8.0 | 29.0 | 0.00 | 0.00 | 0.00 | 31 | 1016.4 |
| 20260506222556 | 12 | 330 | 9.7 | 29.0 | 0.00 | 0.00 | 0.00 | 30 | 1016.4 |
| 20260506222056 | 12 | 331 | 11.3 | 29.0 | 0.00 | 0.00 | 0.00 | 31 | 1016.4 |
| 20260506221557 | 12 | 333 | 8.0 | 19.3 | 0.00 | 0.00 | 0.00 | 31 | 1016.3 |
| 20260506221055 | 12 | 281 | 6.4 | 19.3 | 0.00 | 0.00 | 0.00 | 32 | 1016.3 |
| 20260506220558 | 12 | 327 | 8.0 | 19.3 | 0.00 | 0.00 | 0.00 | 31 | 1016.5 |
| 20260506220058 | 13 | 350 | 6.4 | 17.7 | 0.00 | 0.00 | 0.00 | 31 | 1016.5 |
| 20260506215556 | 13 | 302 | 6.4 | 38.6 | 0.00 | 0.00 | 0.00 | 31 | 1016.5 |
| 20260506215058 | 12 | 341 | 6.4 | 38.6 | 0.00 | 0.00 | 0.00 | 32 | 1016.6 |
| 20260506214555 | 13 | 295 | 14.5 | 38.6 | 0.00 | 0.00 | 0.00 | 31 | 1016.6 |
| 20260506214056 | 13 | 337 | 4.8 | 22.5 | 0.00 | 0.00 | 0.00 | 31 | 1016.6 |
| 20260506213555 | 13 | 34 | 8.0 | 22.5 | 0.00 | 0.00 | 0.00 | 31 | 1016.5 |
| 20260506213101 | 13 | 331 | 9.7 | 24.1 | 0.00 | 0.00 | 0.00 | 31 | 1016.5 |
| 20260506212556 | 12 | 315 | 11.3 | 24.1 | 0.00 | 0.00 | 0.00 | 32 | 1016.5 |
| 20260506212056 | 12 | 313 | 8.0 | 27.4 | 0.00 | 0.00 | 0.00 | 31 | 1016.5 |
| 20260506211601 | 12 | 325 | 11.3 | 27.4 | 0.00 | 0.00 | 0.00 | 32 | 1016.6 |
| 20260506211056 | 12 | 309 | 9.7 | 25.7 | 0.00 | 0.00 | 0.00 | 31 | 1016.6 |
| 20260506210556 | 13 | 298 | 11.3 | 20.9 | 0.00 | 0.00 | 0.00 | 31 | 1016.6 |
| 20260506210057 | 13 | 344 | 8.0 | 30.6 | 0.00 | 0.00 | 0.00 | 32 | 1016.7 |
| 20260506205556 | 13 | 336 | 6.4 | 30.6 | 0.00 | 0.00 | 0.00 | 32 | 1017.0 |
| 20260506205055 | 13 | 306 | 16.1 | 30.6 | 0.00 | 0.00 | 0.00 | 33 | 1017.0 |
| 20260506204602 | 13 | 257 | 6.4 | 25.7 | 0.00 | 0.00 | 0.00 | 32 | 1017.0 |
| 20260506204055 | 12 | 308 | 9.7 | 25.7 | 0.00 | 0.00 | 0.00 | 32 | 1017.2 |
| 20260506203556 | 13 | 329 | 11.3 | 24.1 | 0.00 | 0.00 | 0.00 | 33 | 1017.2 |
| 20260506203103 | 13 | 13 | 6.4 | 24.1 | 0.00 | 0.00 | 0.00 | 31 | 1017.1 |
| 20260506202558 | 13 | 30 | 11.3 | 29.0 | 0.00 | 0.00 | 0.00 | 32 | 1017.3 |
| 20260506202057 | 13 | 346 | 16.1 | 29.0 | 0.00 | 0.00 | 0.00 | 31 | 1017.2 |
| 20260506201600 | 12 | 307 | 8.0 | 25.7 | 0.00 | 0.00 | 0.00 | 33 | 1017.1 |
| 20260506201054 | 12 | 320 | 9.7 | 22.5 | 0.00 | 0.00 | 0.00 | 33 | 1017.2 |
| 20260506200558 | 12 | 14 | 6.4 | 27.4 | 0.00 | 0.00 | 0.00 | 33 | 1017.2 |
| 20260506200111 | 12 | 330 | 6.4 | 27.4 | 0.00 | 0.00 | 0.00 | 32 | 1017.3 |
| 20260506195600 | 12 | 321 | 12.9 | 30.6 | 0.00 | 0.00 | 0.00 | 33 | 1017.5 |
| 20260506195056 | 12 | 360 | 16.1 | 30.6 | 0.00 | 0.00 | 0.00 | 33 | 1017.6 |
| 20260506194616 | 12 | 298 | 11.3 | 29.0 | 0.00 | 0.00 | 0.00 | 34 | 1017.5 |
| 20260506194056 | 12 | 315 | 11.3 | 24.1 | 0.00 | 0.00 | 0.00 | 33 | 1017.4 |
| 20260506193557 | 12 | 323 | 11.3 | 24.1 | 0.00 | 0.00 | 0.00 | 33 | 1017.4 |
| 20260506193057 | 12 | 325 | 8.0 | 22.5 | 0.00 | 0.00 | 0.00 | 33 | 1017.4 |
| 20260506192555 | 12 | 296 | 8.0 | 22.5 | 0.00 | 0.00 | 0.00 | 34 | 1017.4 |
| 20260506192100 | 12 | 304 | 12.9 | 25.7 | 0.00 | 0.00 | 0.00 | 34 | 1017.5 |
| 20260506191554 | 12 | 321 | 12.9 | 25.7 | 0.00 | 0.00 | 0.00 | 35 | 1017.5 |
| 20260506191057 | 12 | 320 | 11.3 | 24.1 | 0.00 | 0.00 | 0.00 | 34 | 1017.6 |
| 20260506190555 | 12 | 284 | 11.3 | 25.7 | 0.00 | 0.00 | 0.00 | 34 | 1017.3 |
| 20260506190101 | 12 | 249 | 9.7 | 25.7 | 0.00 | 0.00 | 0.00 | 36 | 1017.5 |
| 20260506185558 | 12 | 298 | 11.3 | 27.4 | 0.00 | 0.00 | 0.00 | 34 | 1017.5 |
| 20260506185058 | 11 | 303 | 11.3 | 27.4 | 0.00 | 0.00 | 0.00 | 36 | 1017.4 |
| 20260506184610 | 11 | 29 | 6.4 | 25.7 | 0.00 | 0.00 | 0.00 | 35 | 1017.4 |
| 20260506184055 | 11 | 18 | 11.3 | 24.1 | 0.00 | 0.00 | 0.00 | 34 | 1017.3 |
| 20260506183601 | 12 | 269 | 14.5 | 24.1 | 0.00 | 0.00 | 0.00 | 34 | 1017.6 |
| 20260506183104 | 11 | 303 | 8.0 | 37.0 | 0.00 | 0.00 | 0.00 | 36 | 1017.6 |
| 20260506182557 | 11 | 5 | 11.3 | 37.0 | 0.00 | 0.00 | 0.00 | 35 | 1017.8 |
| 20260506182100 | 11 | 339 | 17.7 | 37.0 | 0.00 | 0.00 | 0.00 | 35 | 1017.7 |
| 20260506181601 | 11 | 310 | 14.5 | 27.4 | 0.00 | 0.00 | 0.00 | 35 | 1017.8 |
| 20260506181057 | 11 | 9 | 12.9 | 27.4 | 0.00 | 0.00 | 0.00 | 35 | 1017.9 |
| 20260506180558 | 11 | 323 | 8.0 | 25.7 | 0.00 | 0.00 | 0.00 | 37 | 1017.7 |
| 20260506180056 | 11 | 348 | 12.9 | 25.7 | 0.00 | 0.00 | 0.00 | 35 | 1018.0 |
| 20260506175555 | 11 | 308 | 12.9 | 27.4 | 0.00 | 0.00 | 0.00 | 36 | 1018.0 |
| 20260506175055 | 11 | 5 | 8.0 | 27.4 | 0.00 | 0.00 | 0.00 | 37 | 1018.0 |
| 20260506174602 | 11 | 317 | 16.1 | 27.4 | 0.00 | 0.00 | 0.00 | 36 | 1018.2 |
| 20260506174055 | 11 | 323 | 12.9 | 24.1 | 0.00 | 0.00 | 0.00 | 37 | 1018.1 |
| 20260506173558 | 11 | 360 | 12.9 | 22.5 | 0.00 | 0.00 | 0.00 | 37 | 1018.3 |
| 20260506173112 | 11 | 323 | 9.7 | 19.3 | 0.00 | 0.00 | 0.00 | 36 | 1018.2 |
| 20260506172554 | 10 | 298 | 9.7 | 29.0 | 0.00 | 0.00 | 0.00 | 37 | 1018.1 |
| 20260506172056 | 10 | 315 | 16.1 | 29.0 | 0.00 | 0.00 | 0.00 | 37 | 1018.2 |
| 20260506171600 | 10 | 308 | 9.7 | 24.1 | 0.00 | 0.00 | 0.00 | 38 | 1018.3 |
| 20260506171056 | 10 | 344 | 8.0 | 24.1 | 0.00 | 0.00 | 0.00 | 39 | 1018.2 |
| 20260506170558 | 10 | 303 | 11.3 | 24.1 | 0.00 | 0.00 | 0.00 | 38 | 1018.3 |
| 20260506170057 | 10 | 277 | 11.3 | 20.9 | 0.00 | 0.00 | 0.00 | 38 | 1018.2 |
| 20260506165555 | 10 | 271 | 11.3 | 20.9 | 0.00 | 0.00 | 0.00 | 39 | 1018.2 |
| 20260506165055 | 10 | 346 | 11.3 | 20.9 | 0.00 | 0.00 | 0.00 | 39 | 1018.2 |
| 20260506164557 | 10 | 311 | 9.7 | 20.9 | 0.00 | 0.00 | 0.00 | 39 | 1018.1 |
| 20260506164055 | 10 | 355 | 9.7 | 22.5 | 0.00 | 0.00 | 0.00 | 39 | 1018.2 |
| 20260506163555 | 10 | 25 | 8.0 | 22.5 | 0.00 | 0.00 | 0.00 | 41 | 1018.0 |
| 20260506163055 | 10 | 9 | 9.7 | 19.3 | 0.00 | 0.00 | 0.00 | 40 | 1018.2 |
| 20260506162555 | 9 | 10 | 8.0 | 22.5 | 0.00 | 0.00 | 0.00 | 39 | 1018.1 |
| 20260506162101 | 10 | 23 | 9.7 | 22.5 | 0.00 | 0.00 | 0.00 | 38 | 1018.1 |
| 20260506161604 | 10 | 313 | 8.0 | 19.3 | 0.00 | 0.00 | 0.00 | 38 | 1018.1 |
| 20260506161055 | 10 | 306 | 4.8 | 20.9 | 0.00 | 0.00 | 0.00 | 41 | 1018.0 |
| 20260506160555 | 10 | 300 | 6.4 | 20.9 | 0.00 | 0.00 | 0.00 | 40 | 1018.0 |
| 20260506160057 | 10 | 308 | 9.7 | 20.9 | 0.00 | 0.00 | 0.00 | 40 | 1018.0 |
| 20260506155555 | 10 | 36 | 11.3 | 25.7 | 0.00 | 0.00 | 0.00 | 39 | 1017.9 |
| 20260506155057 | 10 | 18 | 8.0 | 25.7 | 0.00 | 0.00 | 0.00 | 40 | 1018.2 |
| 20260506154559 | 9 | 311 | 12.9 | 25.7 | 0.00 | 0.00 | 0.00 | 41 | 1018.0 |
| 20260506154058 | 9 | 302 | 12.9 | 24.1 | 0.00 | 0.00 | 0.00 | 42 | 1018.2 |
| 20260506153558 | 9 | 290 | 9.7 | 19.3 | 0.00 | 0.00 | 0.00 | 42 | 1018.1 |
| 20260506153058 | 9 | 327 | 8.0 | 19.3 | 0.00 | 0.00 | 0.00 | 41 | 1018.0 |
| 20260506152557 | 9 | 344 | 4.8 | 19.3 | 0.00 | 0.00 | 0.00 | 43 | 1018.0 |
| 20260506152059 | 9 | 41 | 9.7 | 19.3 | 0.00 | 0.00 | 0.00 | 42 | 1018.0 |
| 20260506151607 | 9 | 261 | 4.8 | 19.3 | 0.00 | 0.00 | 0.00 | 43 | 1018.0 |
| 20260506151057 | 9 | 32 | 4.8 | 19.3 | 0.00 | 0.00 | 0.00 | 45 | 1018.0 |
| 20260506150557 | 8 | 15 | 6.4 | 14.5 | 0.00 | 0.00 | 0.00 | 45 | 1017.8 |
| 20260506150106 | 8 | 296 | 8.0 | 14.5 | 0.00 | 0.00 | 0.00 | 44 | 1017.9 |
| 20260506145557 | 8 | 295 | 6.4 | 14.5 | 0.00 | 0.00 | 0.00 | 45 | 1017.9 |
| 20260506145058 | 8 | 290 | 6.4 | 20.9 | 0.00 | 0.00 | 0.00 | 46 | 1018.0 |
| 20260506144612 | 8 | 5 | 8.0 | 20.9 | 0.00 | 0.00 | 0.00 | 46 | 1018.0 |
| 20260506144057 | 8 | 319 | 8.0 | 12.9 | 0.00 | 0.00 | 0.00 | 46 | 1017.8 |
| 20260506143555 | 8 | 285 | 3.2 | 11.3 | 0.00 | 0.00 | 0.00 | 48 | 1017.9 |
| 20260506143105 | 7 | 294 | 1.6 | 11.3 | 0.00 | 0.00 | 0.00 | 48 | 1017.8 |
| 20260506142557 | 8 | 273 | 4.8 | 11.3 | 0.00 | 0.00 | 0.00 | 47 | 1018.0 |
| 20260506142056 | 8 | 329 | 1.6 | 9.7 | 0.00 | 0.00 | 0.00 | 48 | 1017.7 |
| 20260506141558 | 7 | 331 | 3.2 | 9.7 | 0.00 | 0.00 | 0.00 | 47 | 1017.8 |
| 20260506141057 | 7 | 311 | 4.8 | 12.9 | 0.00 | 0.00 | 0.00 | 48 | 1017.7 |
| 20260506140558 | 7 | 320 | 3.2 | 12.9 | 0.00 | 0.00 | 0.00 | 49 | 1017.7 |
| 20260506140106 | 7 | 13 | 3.2 | 12.9 | 0.00 | 0.00 | 0.00 | 49 | 1017.7 |
| 20260506135554 | 7 | 324 | 4.8 | 12.9 | 0.00 | 0.00 | 0.00 | 51 | 1017.6 |
| 20260506135057 | 7 | 319 | 4.8 | 9.7 | 0.00 | 0.00 | 0.00 | 50 | 1017.4 |
| 20260506134559 | 7 | 25 | 0.0 | 6.4 | 0.00 | 0.00 | 0.00 | 53 | 1017.2 |
| 20260506134054 | 7 | 25 | 3.2 | 12.9 | 0.00 | 0.00 | 0.00 | 51 | 1017.5 |
| 20260506133557 | 6 | 17 | 1.6 | 12.9 | 0.00 | 0.00 | 0.00 | 52 | 1017.4 |
| 20260506133057 | 6 | 22 | 3.2 | 12.9 | 0.00 | 0.00 | 0.00 | 51 | 1017.5 |
| 20260506132555 | 6 | 342 | 1.6 | 12.9 | 0.00 | 0.00 | 0.00 | 54 | 1017.5 |
| 20260506132056 | 6 | 21 | 3.2 | 8.0 | 0.00 | 0.00 | 0.00 | 54 | 1017.4 |
| 20260506131557 | 6 | 21 | 1.6 | 8.0 | 0.00 | 0.00 | 0.00 | 57 | 1017.3 |
| 20260506131058 | 6 | 11 | 3.2 | 8.0 | 0.00 | 0.00 | 0.00 | 58 | 1017.3 |
| 20260506130557 | 5 | 11 | 3.2 | 8.0 | 0.00 | 0.00 | 0.00 | 59 | 1017.4 |
| 20260506130133 | 5 | 10 | 3.2 | 8.0 | 0.00 | 0.00 | 0.00 | 60 | 1017.2 |
| 20260506125559 | 5 | 44 | 3.2 | 9.7 | 0.00 | 0.00 | 0.00 | 61 | 1017.3 |
| 20260506125057 | 4 | 44 | 3.2 | 9.7 | 0.00 | 0.00 | 0.00 | 61 | 1017.2 |
| 20260506124557 | 4 | 51 | 3.2 | 9.7 | 0.00 | 0.00 | 0.00 | 62 | 1017.3 |
| 20260506124057 | 3 | 15 | 1.6 | 8.0 | 0.00 | 0.00 | 0.00 | 63 | 1017.2 |
| 20260506123558 | 3 | 19 | 3.2 | 8.0 | 0.00 | 0.00 | 0.00 | 64 | 1017.1 |
| 20260506123055 | 3 | 355 | 1.6 | 8.0 | 0.00 | 0.00 | 0.00 | 65 | 1017.1 |
| 20260506122558 | 3 | 355 | 1.6 | 6.4 | 0.00 | 0.00 | 0.00 | 65 | 1017.0 |
| 20260506122058 | 3 | 5 | 1.6 | 4.8 | 0.00 | 0.00 | 0.00 | 65 | 1016.9 |
| 20260506121558 | 3 | 5 | 1.6 | 4.8 | 0.00 | 0.00 | 0.00 | 65 | 1016.8 |
| 20260506121055 | 3 | 0 | 1.6 | 4.8 | 0.00 | 0.00 | 0.00 | 66 | 1016.7 |
| 20260506120556 | 2 | 5 | 0.0 | 3.2 | 0.00 | 0.00 | 0.00 | 66 | 1016.7 |
| 20260506120100 | 2 | 0 | 0.0 | 3.2 | 0.00 | 0.00 | 0.00 | 66 | 1016.6 |
| 20260506115557 | 2 | 0 | 0.0 | 3.2 | 0.00 | 0.00 | 0.00 | 66 | 1016.5 |
| 20260506115057 | 2 | 0 | 0.0 | 3.2 | 0.00 | 0.00 | 0.00 | 65 | 1016.4 |
| 20260506114556 | 2 | 0 | 0.0 | 3.2 | 0.00 | 0.00 | 0.00 | 65 | 1016.2 |
| 20260506114058 | 2 | 0 | 0.0 | 3.2 | 0.00 | 0.00 | 0.00 | 65 | 1016.2 |
| 20260506113557 | 2 | 5 | 0.0 | 3.2 | 0.00 | 0.00 | 0.00 | 65 | 1016.3 |
| 20260506113106 | 2 | 0 | 0.0 | 3.2 | 0.00 | 0.00 | 0.00 | 65 | 1016.1 |
| 20260506112555 | 2 | 0 | 0.0 | 3.2 | 0.00 | 0.00 | 0.00 | 64 | 1016.1 |
| 20260506112054 | 2 | 0 | 0.0 | 4.8 | 0.00 | 0.00 | 0.00 | 63 | 1016.1 |
| 20260506111557 | 3 | 0 | 0.0 | 4.8 | 0.00 | 0.00 | 0.00 | 63 | 1016.1 |
| 20260506111054 | 3 | 5 | 0.0 | 4.8 | 0.00 | 0.00 | 0.00 | 63 | 1016.1 |
| 20260506110554 | 3 | 5 | 0.0 | 4.8 | 0.00 | 0.00 | 0.00 | 63 | 1016.0 |
| 20260506105554 | 3 | 5 | 1.6 | 3.2 | 0.00 | 0.00 | 0.00 | 62 | 1015.8 |
| 20260506105055 | 3 | 5 | 0.0 | 3.2 | 0.00 | 0.00 | 0.00 | 62 | 1015.9 |
| 20260506104615 | 3 | 5 | 0.0 | 3.2 | 0.00 | 0.00 | 0.00 | 61 | 1015.7 |
| 20260506104055 | 3 | 0 | 0.0 | 3.2 | 0.00 | 0.00 | 0.00 | 61 | 1015.6 |
| 20260506103558 | 3 | 5 | 0.0 | 3.2 | 0.00 | 0.00 | 0.00 | 60 | 1015.7 |
| 20260506103057 | 3 | 5 | 1.6 | 3.2 | 0.00 | 0.00 | 0.00 | 60 | 1015.6 |
| 20260506102555 | 3 | 5 | 0.0 | 4.8 | 0.00 | 0.00 | 0.00 | 60 | 1015.6 |
| 20260506102054 | 3 | 0 | 1.6 | 4.8 | 0.00 | 0.00 | 0.00 | 60 | 1015.4 |
| 20260506101603 | 3 | 5 | 0.0 | 3.2 | 0.00 | 0.00 | 0.00 | 60 | 1015.4 |
| 20260506101054 | 3 | 5 | 0.0 | 3.2 | 0.00 | 0.00 | 0.00 | 60 | 1015.5 |
| 20260506100557 | 3 | 5 | 0.0 | 4.8 | 0.00 | 0.00 | 0.00 | 60 | 1015.4 |
| 20260506100101 | 3 | 5 | 0.0 | 4.8 | 0.00 | 0.00 | 0.00 | 60 | 1015.5 |
| 20260506095559 | 3 | 5 | 1.6 | 4.8 | 0.00 | 0.00 | 0.00 | 60 | 1015.4 |
| 20260506095058 | 3 | 5 | 0.0 | 4.8 | 0.00 | 0.00 | 0.00 | 60 | 1015.5 |
| 20260506094601 | 4 | 5 | 1.6 | 4.8 | 0.00 | 0.00 | 0.00 | 59 | 1015.4 |
| 20260506094057 | 4 | 5 | 0.0 | 4.8 | 0.00 | 0.00 | 0.00 | 59 | 1015.2 |
| 20260506093557 | 4 | 5 | 0.0 | 4.8 | 0.00 | 0.00 | 0.00 | 59 | 1015.3 |
| 20260506093106 | 4 | 5 | 1.6 | 4.8 | 0.00 | 0.00 | 0.00 | 59 | 1015.3 |
| 20260506092557 | 4 | 5 | 0.0 | 4.8 | 0.00 | 0.00 | 0.00 | 58 | 1015.3 |
| 20260506092055 | 4 | 360 | 1.6 | 4.8 | 0.00 | 0.00 | 0.00 | 58 | 1015.3 |
| 20260506091559 | 4 | 360 | 1.6 | 4.8 | 0.00 | 0.00 | 0.00 | 58 | 1015.2 |
| 20260506091055 | 4 | 0 | 0.0 | 4.8 | 0.00 | 0.00 | 0.00 | 58 | 1015.1 |
| 20260506090602 | 4 | 0 | 1.6 | 4.8 | 0.00 | 0.00 | 0.00 | 58 | 1015.2 |
| 20260506085556 | 4 | 360 | 1.6 | 4.8 | 0.00 | 0.00 | 0.00 | 59 | 1015.1 |
| 20260506085056 | 4 | 360 | 0.0 | 6.4 | 0.00 | 0.00 | 0.00 | 60 | 1015.1 |
| 20260506084556 | 3 | 360 | 0.0 | 6.4 | 0.00 | 0.00 | 0.00 | 60 | 1015.1 |